Location: Bothwell
(42.3833°S, 147.0000°E)
Time: 21:35:19
(UTC+10:00)

Envisat - Pass Details

Date: 25 February 2024
Orbit: 762 x 764 km, 98.3° (Epoch: 22 April)

Event Time Altitude Azimuth Distance (km) Brightness Sun altitude
Exits shadow 03:20:38 48° 127° (SE) 1,006 3.8 -31.8°
Drops below altitude 10° 03:25:07 10° 183° (S) 2,333 6.1 -31.3°
Sets 03:27:30 0° 187° (S) 3,267 6.9 -31.1°
